TimeCDT,TemperatureF,Dew PointF,Humidity,Sea Level PressureIn,VisibilityMPH,Wind Direction,Wind SpeedMPH,Gust SpeedMPH,PrecipitationIn,Events,Conditions,WindDirDegrees,DateUTC
12:15 AM,78.8,69.8,74,30.03,10.0,SSW,10.4,17.3,N/A,,Clear,200,2013-08-27 05:15:00
12:35 AM,77.0,69.8,78,30.03,-9999.0,SSW,11.5,-,N/A,,Clear,210,2013-08-27 05:35:00
12:55 AM,77.0,69.8,78,30.03,10.0,SSW,11.5,-,N/A,,Clear,210,2013-08-27 05:55:00
1:15 AM,77.0,69.8,78,30.02,10.0,SW,10.4,-,N/A,,Clear,220,2013-08-27 06:15:00
1:35 AM,77.0,69.8,78,30.02,10.0,SW,10.4,-,N/A,,Clear,220,2013-08-27 06:35:00
1:55 AM,77.0,69.8,78,30.02,10.0,SSW,10.4,-,N/A,,Clear,210,2013-08-27 06:55:00
2:15 AM,77.0,69.8,78,30.01,10.0,SSW,10.4,-,N/A,,Clear,210,2013-08-27 07:15:00
2:35 AM,75.2,69.8,83,30.01,10.0,SSW,9.2,-,N/A,,Clear,210,2013-08-27 07:35:00
2:55 AM,75.2,69.8,83,30.01,10.0,SSW,9.2,-,N/A,,Clear,210,2013-08-27 07:55:00
3:15 AM,75.2,69.8,83,30.01,10.0,SSW,9.2,-,N/A,,Clear,210,2013-08-27 08:15:00
3:35 AM,75.2,69.8,83,30.01,10.0,SSW,9.2,-,N/A,,Clear,210,2013-08-27 08:35:00
3:55 AM,73.4,69.8,88,30.01,10.0,SSW,9.2,-,N/A,,Clear,210,2013-08-27 08:55:00
4:15 AM,73.4,69.8,88,30.01,10.0,SSW,10.4,-,N/A,,Clear,210,2013-08-27 09:15:00
4:35 AM,73.4,69.8,88,30.01,10.0,SW,9.2,-,N/A,,Clear,220,2013-08-27 09:35:00
4:55 AM,73.4,69.8,88,30.01,10.0,SW,10.4,-,N/A,,Clear,220,2013-08-27 09:55:00
5:15 AM,73.4,68.0,83,30.01,10.0,SW,9.2,-,N/A,,Clear,220,2013-08-27 10:15:00
5:35 AM,73.4,68.0,83,30.01,10.0,SW,10.4,-,N/A,,Clear,220,2013-08-27 10:35:00
5:55 AM,73.4,68.0,83,30.01,10.0,SW,10.4,-,N/A,,Clear,220,2013-08-27 10:55:00
6:15 AM,73.4,68.0,83,30.01,10.0,SW,10.4,-,N/A,,Clear,220,2013-08-27 11:15:00
6:35 AM,73.4,68.0,83,30.02,10.0,SW,10.4,-,N/A,,Clear,220,2013-08-27 11:35:00
6:55 AM,73.4,68.0,83,30.02,10.0,SW,11.5,-,N/A,,Clear,220,2013-08-27 11:55:00
7:15 AM,73.4,68.0,83,30.02,10.0,SW,11.5,18.4,N/A,,Clear,220,2013-08-27 12:15:00
7:35 AM,73.4,68.0,83,30.02,10.0,SW,12.7,-,N/A,,Clear,220,2013-08-27 12:35:00
7:55 AM,75.2,68.0,78,30.02,10.0,SW,11.5,-,N/A,,Clear,220,2013-08-27 12:55:00
8:15 AM,77.0,68.0,74,30.02,10.0,SW,12.7,19.6,N/A,,Clear,230,2013-08-27 13:15:00
8:35 AM,77.0,68.0,74,30.02,10.0,SW,12.7,20.7,N/A,,Clear,230,2013-08-27 13:35:00
8:55 AM,78.8,68.0,69,30.01,10.0,SW,16.1,23.0,N/A,,Clear,230,2013-08-27 13:55:00
9:15 AM,80.6,68.0,65,30.01,10.0,SW,18.4,-,N/A,,Clear,220,2013-08-27 14:15:00
9:35 AM,82.4,68.0,62,30.01,10.0,SW,16.1,23.0,N/A,,Clear,230,2013-08-27 14:35:00
9:55 AM,82.4,68.0,62,30.01,10.0,SW,19.6,-,N/A,,Clear,230,2013-08-27 14:55:00
10:15 AM,84.2,68.0,58,30.01,10.0,SW,17.3,26.5,N/A,,Clear,230,2013-08-27 15:15:00
10:35 AM,84.2,68.0,58,30.01,10.0,SW,17.3,26.5,N/A,,Clear,230,2013-08-27 15:35:00
10:55 AM,84.2,68.0,58,30.01,10.0,SW,19.6,26.5,N/A,,Clear,230,2013-08-27 15:55:00
11:15 AM,86.0,68.0,55,30.01,10.0,SW,18.4,25.3,N/A,,Clear,230,2013-08-27 16:15:00
11:35 AM,86.0,68.0,55,30.01,10.0,SW,19.6,-,N/A,,Clear,230,2013-08-27 16:35:00
11:55 AM,87.8,68.0,52,30.00,10.0,SW,15.0,23.0,N/A,,Clear,230,2013-08-27 16:55:00
12:15 PM,89.6,68.0,49,30.00,10.0,SW,18.4,25.3,N/A,,Clear,220,2013-08-27 17:15:00
12:35 PM,89.6,68.0,49,29.99,10.0,SW,17.3,27.6,N/A,,Clear,230,2013-08-27 17:35:00
12:55 PM,89.6,69.8,52,29.98,10.0,SW,20.7,-,N/A,,Clear,220,2013-08-27 17:55:00
1:15 PM,89.6,69.8,52,29.98,10.0,SW,16.1,23.0,N/A,,Clear,220,2013-08-27 18:15:00
1:35 PM,91.4,69.8,49,29.97,10.0,SW,16.1,25.3,N/A,,Clear,230,2013-08-27 18:35:00
1:55 PM,91.4,69.8,49,29.97,10.0,SW,17.3,25.3,N/A,,Clear,230,2013-08-27 18:55:00
2:15 PM,91.4,69.8,49,29.97,10.0,SW,17.3,24.2,N/A,,Clear,230,2013-08-27 19:15:00
2:35 PM,93.2,69.8,46,29.96,10.0,SSW,16.1,25.3,N/A,,Clear,210,2013-08-27 19:35:00
2:55 PM,93.2,69.8,46,29.96,10.0,SW,19.6,-,N/A,,Clear,220,2013-08-27 19:55:00
3:15 PM,93.2,69.8,46,29.96,10.0,SW,16.1,25.3,N/A,,Clear,220,2013-08-27 20:15:00
3:35 PM,93.2,69.8,46,29.96,10.0,WSW,17.3,25.3,N/A,,Clear,240,2013-08-27 20:35:00
4:15 PM,93.2,69.8,46,29.95,10.0,SW,18.4,26.5,N/A,,Clear,230,2013-08-27 21:15:00
4:35 PM,93.2,69.8,46,29.95,10.0,WSW,19.6,28.8,N/A,,Clear,240,2013-08-27 21:35:00
4:55 PM,93.2,69.8,46,29.95,10.0,SW,16.1,23.0,N/A,,Clear,230,2013-08-27 21:55:00
5:35 PM,91.4,69.8,49,29.95,10.0,SW,15.0,24.2,N/A,,Clear,220,2013-08-27 22:35:00
5:55 PM,91.4,69.8,49,29.95,10.0,SW,17.3,23.0,N/A,,Clear,220,2013-08-27 22:55:00
6:15 PM,91.4,69.8,49,29.95,10.0,SW,12.7,18.4,N/A,,Clear,230,2013-08-27 23:15:00
6:35 PM,89.6,68.0,49,29.94,10.0,SW,15.0,20.7,N/A,,Clear,230,2013-08-27 23:35:00
6:55 PM,87.8,68.0,52,29.94,10.0,SW,13.8,20.7,N/A,,Clear,220,2013-08-27 23:55:00
7:15 PM,87.8,68.0,52,29.94,10.0,SW,10.4,17.3,N/A,,Clear,220,2013-08-28 00:15:00
7:35 PM,86.0,68.0,55,29.95,10.0,SW,10.4,-,N/A,,Clear,220,2013-08-28 00:35:00
7:55 PM,84.2,68.0,58,29.95,10.0,SW,8.1,-,N/A,,Clear,220,2013-08-28 00:55:00
8:15 PM,82.4,69.8,66,29.95,10.0,SW,6.9,-,N/A,,Clear,220,2013-08-28 01:15:00
8:35 PM,80.6,68.0,65,29.96,10.0,SSW,8.1,-,N/A,,Clear,210,2013-08-28 01:35:00
8:55 PM,78.8,68.0,69,29.96,10.0,SSW,6.9,-,N/A,,Clear,210,2013-08-28 01:55:00
9:15 PM,78.8,69.8,74,29.97,10.0,SSW,8.1,-,N/A,,Clear,210,2013-08-28 02:15:00
9:35 PM,78.8,68.0,69,29.97,10.0,SSW,8.1,-,N/A,,Clear,210,2013-08-28 02:35:00
9:55 PM,78.8,68.0,69,29.97,10.0,SSW,6.9,-,N/A,,Clear,210,2013-08-28 02:55:00
10:15 PM,77.0,68.0,74,29.97,10.0,SSW,8.1,-,N/A,,Clear,210,2013-08-28 03:15:00
10:35 PM,77.0,68.0,74,29.97,10.0,SSW,9.2,-,N/A,,Clear,200,2013-08-28 03:35:00
10:55 PM,75.2,68.0,78,29.98,10.0,SSW,9.2,-,N/A,,Clear,210,2013-08-28 03:55:00
11:15 PM,77.0,68.0,74,29.97,10.0,SSW,9.2,-,N/A,,Clear,210,2013-08-28 04:15:00
11:35 PM,75.2,68.0,78,29.98,10.0,SSW,9.2,-,N/A,,Clear,210,2013-08-28 04:35:00
11:55 PM,75.2,66.2,73,29.98,10.0,SSW,9.2,-,N/A,,Clear,210,2013-08-28 04:55:00